STARLINK-32491, 62043

Orbit data source: Space-Track

STARLINK-32491, 62043 is a payload satellite owned by SpaceX/Seattle (US) in LEO that was launched on Thu, 21 Nov 2024 UTC via an FALCON 9 launch vehicle from the Air Force Eastern Test Range (AFETR). Payload-class satellites include a variety of spacecraft equipped with specific instruments for various scientific and technological missions. These include communications satellites like Starlink; space stations such as the ISS; scientific satellites like the Hubble; Earth observation satellites from companies like Planet Labs, Umbra, and HawkEye 360; GPS; miniature CubeSats for education and research; and military/defense satellites.

Loading next visibility...
Identifier
62043, 2024-216M
Orbit
LEO
Country
Flag of USUS
Related business
Manufacturer
SpaceX/Seattle
Mission
Operational Commercial Communications
Bus & Motor
STARLINK V2M, Unknown motor
Mass
730 kg wet, ~700 kg dry
Launch date (UTC)
2024-11-21 (2 years ago)
Launch vehicle
FALCON 9
Launch site
Air Force Eastern Test Range (AFETR)
Object type
Payload
Rocket body
Debris
Shape & HBR
Box + 2 Pan, 17.7 m
Radar Cross Section
33.884 m², Large (>1 m²)

Expand to show TLE details & history
Last TLE update: 1 day ago

TLE from 1 day ago
0 STARLINK-32491
1 62043U 24216M   26235.84687528  .00019655  00000-0  72153-3 0  9993
2 62043  42.9979  39.7891 0000195 155.0971 204.9890 15.27595297 99357
Epoch: 2026-08-23T20:19Z
TLE epoch observation values (Epoch: 2026-08-23T20:19:30.024Z)
Latitude
-0.00001°
Longitude
122.77693°
Altitude
482.9 km
Speed
7.626 km/s
True Right ascension
02h 39m 09s
True Declination
0° 00' 00"
Sunlit
Object was in full shadow at epoch
Visualization orbit readout
Latitude
Unknown
Longitude
Unknown
Altitude
Unknown
Speed
Unknown
Apparent Right ascension
Unknown
Apparent Declination
Unknown
Sunlit
N/A
Visualization observer readout
Local Sidereal Time
17:07:15
Azimuth
Unknown
Elevation
Unknown
Doppler factor
Unknown
Orbital elements
Apogee altitude
485.083 km
Perigee altitude
484.815 km
Semi-major axis
6,863.086 km
Eccentricity
0.00002
Inclination
42.9979°
RAAN
39.7891°
Arg. of periapsis
155.0971°
True anomaly
204.98806°
Mean anomaly
204.989°
Eccentric anomaly
204.98853°
Mean motion
3.81737 °/min
Orbital period
94.31 mins
BSTAR
0.00072153
Loading maneuver chart data...
Computing Atmospheric mass density...
Loading historical data...
Loading historical data...
Loading historical data...
Loading historical data...
Loading historical data...
Loading historical data...
Loading historical data...

Documentation

Showing up to 5 results
|